Terminal Aerodrome Forecast
Issued by NWS Cleveland, OH

Home | Current Version | Previous Version | Text Only | Print | Product List | Glossary On
Versions: 1 2 3 4 5 6 7 8 9 10 11 12 13 14 15 16 17 18 19 20 21 22 23 24 25 26 27
534
FTUS41 KCLE 100448 AAB
TAFMFD
TAF AMD
KMFD 100448Z 1005/1024 27012G22KT P6SM OVC035
     FM100800 27010G20KT 6SM HZ OVC025
     FM101400 27012KT 6SM -SHSN OVC022
     FM101800 27012G20KT 3SM -SHSN OVC018=

USA.gov is the U.S. government's official web portal to all federal, state and local government web resources and services.